Regional Weather Roundup
Issued by NWS Jackson, KY

Home | Current Version | Previous Version | Graphics & Text | Print | Product List | Glossary On
Versions: 1 2 3 4 5 6 7 8 9 10 11 12 13 14 15 16 17 18 19 20 21 22 23 24 25 26 27 28 29 30 31 32 33 34 35 36 37 38 39 40 41 42 43 44 45 46 47 48 49 50
462
ASUS43 KJKL 032010
RWRJKL

EAST KENTUCKY HOURLY WEATHER ROUNDUP
NATIONAL WEATHER SERVICE JACKSON KY
300 PM EST SAT DEC 03 2016

NOTE: "FAIR" INDICATES FEW OR NO CLOUDS BELOW 12,000 FEET WITH
NO SIGNIFICANT WEATHER AND/OR OBSTRUCTIONS TO VISIBILITY.

* THESE REPORTS ARE NOT UNDER NWS QUALITY CONTROL AND MAY NOT
  REPORT WEATHER SUCH AS PRECIPITATION AND FOG.

KYZ079-080-083-085-087-088-110-112-115-119-120-032100
...EASTERN KENTUCKY...

CITY           SKY/WX    TMP DP  RH WIND       PRES   REMARKS
JACKSON        CLOUDY    41  29  62 CALM      30.29F
LONDON         CLOUDY    42  28  57 N5        30.29F
SOMERSET*      CLOUDY    41  30  65 NE3       30.32S
MONTICELLO*    CLOUDY    41  30  65 N10       30.32F
WILLIAMSBURG*  CLOUDY    41  30  65 NE5       30.29F
MIDDLESBORO*   CLOUDY    42  31  63 NE5       30.29F
HARLAN APT*    CLOUDY    41  28  60 CALM      30.28S
PIKE CO APT*   CLOUDY    39  28  66 CALM      30.30F
BIG SANDY APT* CLOUDY    41  30  65 CALM      30.31F
MOREHEAD APT*  CLOUDY    41  28  60 NE5       30.33F
ASHLAND*       CLOUDY    43  30  61 NW3       30.32F
$$

KYZ035-036-041-042-044-050-067-078-099-032100
...CENTRAL KENTUCKY...

CITY           SKY/WX    TMP DP  RH WIND       PRES   REMARKS
MT STERLING*   CLOUDY    41  32  70 CALM      30.33F
FLEMING/MASON* PTSUNNY   40  27  59 NW3       30.33F
DANVILLE*      CLOUDY    41  30  65 N3        30.32S
LEXINGTON      CLOUDY    42  28  57 NE6       30.31F
FRANKFORT      CLOUDY    43  27  53 NW3       30.30F
LOUISVILLE     CLOUDY    45  26  47 NW3       30.32F
LEBANON*       CLOUDY    41  30  65 CALM      30.31F
GLASGOW*       CLOUDY    42  32  68 E5        30.31F
BOWLING GREEN  CLOUDY    44  31  60 E7        30.32F
$$

KYZ091>093-OHZ055-061-077-WVZ005-015-034-035-042-032100
...SOUTHERN OHIO/WEST VIRGINIA...

CITY           SKY/WX    TMP DP  RH WIND       PRES   REMARKS
COVINGTON      CLOUDY    41  30  65 W6        30.31F
COLUMBUS       CLOUDY    39  26  59 W3        30.31S
DAYTON         CLOUDY    38  27  64 W7        30.32F WCI  33
WILMINGTON     CLOUDY    39  27  62 NW6       30.30F WCI  35
HUNTINGTON     CLOUDY    42  28  57 NW3       30.33F
CHARLESTON     CLOUDY    40  26  57 NW5       30.32F
PINEVILLE*     CLOUDY    38  24  57 MISG      30.34F
BECKLEY        CLOUDY    34  24  67 NW6       30.26S WCI  29
BLUEFIELD      CLOUDY    32  24  72 W9        30.25S WCI  24
LOGAN CO APT*  CLOUDY    39  27  60 CALM      30.29F
$$

VAZ002-007-008-TNZ017-027-036-066-071-032100
...SOUTHWEST VIRGINIA/EAST TENNESSEE...

CITY           SKY/WX    TMP DP  RH WIND       PRES   REMARKS
WISE*          CLOUDY    36  28  75 CALM      30.25F
JONESVILLE*      N/A     41  30  65 CALM      30.30F
ABINGDON*      CLOUDY    41  28  60 N3        30.26F
BRISTOL        CLOUDY    42  28  57 CALM      30.27F
MORRISTOWN*    CLEAR     43  32  65 E6        30.27R
SEVIERVILLE*   CLEAR     43  30  61 N5        30.28R
KNOXVILLE      CLOUDY    45  32  60 NE8       30.27S
OAK RIDGE      CLOUDY    46  30  53 NE3       30.30R
CROSSVILLE     CLOUDY    41  30  65 N6        30.26F
NASHVILLE      CLOUDY    44  30  57 E5        30.31F
$$

...KEY TO REMARKS...
VSB - VISIBILITY IN MILES
WCI - WIND CHILL INDEX
HX  - HEAT INDEX

$$




USA.gov is the U.S. government's official web portal to all federal, state and local government web resources and services.